Lapse_Rate
4.4 4.2 4.3 4.7 4.6 4.7 5.1 5.5 5.7 6.0 6.2 6.2 6.2 6.0 6.1 6.0 5.7 5.3 5.0 4.8 4.7 4.7 4.9 4.8 5.2 5.6 5.2 4.9 5.3 5.2 5.3 5.5 5.9 6.1 5.8 5.3 5.3 5.4 5.3 5.5 5.6 5.7 5.8
4.9 4.9 4.8 4.7 4.9 5.1 5.8 6.0 6.1 6.1 6.4 6.5 6.3 6.3 6.4 6.4 6.3 6.2 5.8 5.5 4.9 4.8 4.7 4.6 4.7 4.9 5.7 5.1 5.1 5.1 5.2 5.6 5.7 6.2 5.6 5.2 5.3 5.2 5.3 5.4 5.5 5.7 5.7
4.9 5.2 5.4 5.6 5.5 5.5 5.8 6.0 6.1 6.1 6.5 6.7 6.9 6.9 7.1 7.2 7.7 7.6 6.9 6.8 6.3 5.5 4.8 4.7 4.6 4.7 5.1 5.3 5.2 5.1 4.9 5.3 5.7 6.2 5.8 5.2 5.2 5.1 5.2 5.3 5.5 5.6 5.8
5.2 5.6 5.9 5.6 5.6 5.5 5.6 5.8 5.8 5.9 6.0 6.4 7.0 7.3 7.7 8.2 8.5 8.5 8.2 7.7 7.4 6.8 6.2 5.4 4.8 4.5 5.1 5.5 4.9 5.0 4.8 5.2 5.5 5.9 5.9 5.4 5.3 5.1 5.2 5.4 5.4 5.7 5.7
5.9 6.3 6.5 6.6 6.2 6.0 6.0 6.1 6.0 5.9 6.1 6.6 6.9 7.3 8.0 8.2 8.4 8.5 8.4 8.3 8.1 7.7 7.8 7.3 6.5 5.3 5.0 4.9 5.1 4.8 4.7 4.9 5.3 5.8 6.2 5.6 5.5 5.3 5.2 5.0 5.6 5.6 5.7
6.0 6.4 6.7 6.7 6.7 6.6 6.3 6.6 6.7 6.4 6.5 7.1 7.3 7.4 8.0 8.2 8.3 8.4 8.4 8.4 8.3 8.2 8.2 8.2 8.1 7.1 5.3 5.2 5.7 4.8 4.8 4.9 5.4 6.0 6.5 5.8 5.6 5.2 5.2 5.3 5.6 5.5 5.8
5.6 6.0 6.5 6.4 6.5 6.5 6.5 6.3 6.5 6.6 6.9 7.2 7.5 7.7 8.0 8.1 8.2 8.3 8.2 8.2 8.2 8.2 8.3 8.4 8.3 8.1 7.0 6.1 6.0 6.2 4.8 4.7 5.5 6.0 6.3 5.9 5.6 5.3 5.4 5.8 5.5 5.4 6.0
5.5 5.8 6.2 6.2 6.3 6.5 6.5 6.3 6.3 6.2 6.7 7.2 7.6 7.9 8.0 8.2 8.3 8.4 8.2 8.2 8.1 8.0 8.1 8.1 8.3 7.7 7.0 6.5 6.4 6.4 5.0 5.3 5.9 6.4 6.2 5.7 5.5 5.6 5.7 5.6 5.5 5.7 6.1
5.5 5.3 5.6 5.8 5.8 6.0 6.4 6.4 6.4 6.3 6.3 6.7 7.6 8.1 8.1 8.3 8.3 8.4 8.2 8.0 7.9 7.9 8.0 7.8 8.0 7.0 6.2 6.3 6.3 6.2 5.7 5.8 5.7 6.0 5.9 5.9 5.6 5.6 5.7 5.8 6.0 5.9 5.9
5.6 5.7 5.5 5.5 5.6 5.7 5.9 6.3 6.2 6.3 6.2 6.5 7.6 8.1 8.2 8.4 8.5 8.4 8.0 7.8 7.7 7.6 7.5 7.4 7.1 7.1 5.7 6.7 6.0 6.7 6.5 6.0 6.0 6.0 5.8 5.9 5.6 5.6 5.7 6.3 6.1 5.7 5.5
5.7 5.8 5.9 5.7 5.7 5.6 5.7 5.8 5.8 5.8 6.1 6.6 7.8 8.2 8.4 8.4 8.4 8.1 7.8 7.5 7.2 7.5 7.2 7.2 6.7 6.3 6.4 6.0 6.3 6.5 5.9 5.6 5.6 5.6 5.8 5.7 5.5 6.1 6.4 5.9 5.6 5.3 5.1
5.9 5.9 6.2 6.1 6.0 5.9 5.8 5.9 6.0 6.0 6.4 7.1 7.8 8.3 8.4 8.4 8.0 7.7 7.0 6.8 6.6 6.5 6.4 6.7 6.7 6.2 5.7 6.0 6.0 5.4 5.0 5.2 5.3 5.4 5.6 5.5 6.3 6.2 6.0 5.6 5.1 4.4 3.9
5.9 6.1 6.0 6.3 6.2 6.1 6.0 5.9 6.1 6.5 6.9 7.3 8.0 8.3 8.3 8.1 7.3 6.7 6.3 6.2 6.2 6.5 6.9 6.7 6.1 6.3 5.9 5.4 5.0 4.8 5.1 5.1 5.3 5.5 5.8 6.2 6.1 5.9 5.5 5.0 3.9 4.0 4.3
6.0 6.1 5.9 6.6 6.7 6.7 6.5 6.4 6.6 6.9 7.3 7.7 8.1 8.0 7.9 6.9 6.5 6.1 5.8 6.1 6.3 6.0 5.7 5.6 5.7 5.7 6.0 5.2 5.0 5.1 5.0 5.2 5.5 6.1 6.1 6.0 5.8 5.3 5.0 4.3 4.5 4.4 4.1
6.1 6.1 6.1 6.6 7.1 7.2 6.9 7.0 7.1 7.3 7.6 7.8 7.5 7.1 6.7 6.3 5.8 5.8 5.8 5.9 5.8 5.9 5.8 5.9 6.0 6.2 5.7 4.9 5.1 5.1 5.4 5.6 5.9 6.0 6.0 5.7 5.2 5.0 4.4 4.6 4.6 4.5 4.3
6.1 6.2 6.3 6.6 7.0 7.1 7.3 7.3 7.1 7.3 7.2 7.0 6.5 6.2 5.9 5.8 5.8 5.9 5.6 5.9 5.7 5.6 5.7 5.6 5.5 4.7 4.8 5.1 5.4 5.4 5.4 5.7 5.8 5.9 5.7 5.1 4.9 4.2 4.7 4.6 4.5 4.4 5.5
6.1 6.1 6.2 6.6 7.0 7.0 6.9 6.8 6.9 6.8 6.5 6.4 6.2 5.8 5.8 5.8 5.8 5.8 5.8 6.0 5.6 5.4 5.4 5.0 4.7 4.6 5.1 5.4 5.2 5.0 5.2 5.6 5.7 5.6 5.1 4.8 4.2 4.4 4.8 4.1 4.4 6.1 6.6
6.1 6.1 6.3 6.1 5.9 6.2 6.4 6.6 6.6 6.3 6.3 5.9 5.8 5.9 6.1 5.9 5.8 6.0 5.8 5.5 5.3 4.9 4.8 4.6 4.5 4.9 5.0 4.5 4.3 4.8 5.2 5.5 5.6 5.1 4.7 4.1 4.3 4.8 4.6 4.3 4.6 5.9 7.2
5.9 5.9 5.7 5.4 5.6 5.7 6.6 6.5 6.2 6.0 5.7 5.7 5.8 5.9 5.9 5.9 5.5 5.2 5.2 5.0 4.8 4.7 4.0 4.2 4.3 4.3 4.3 4.0 4.5 5.0 5.3 5.4 5.1 4.7 4.0 4.0 4.5 5.0 4.9 4.9 4.5 6.1 6.8
5.4 5.6 5.6 5.7 5.9 5.9 5.9 6.1 5.8 5.4 5.5 5.6 5.8 5.7 5.6 5.1 4.8 4.6 4.3 4.0 4.1 3.6 3.7 4.3 4.2 4.1 4.2 4.2 4.7 5.0 5.2 4.9 4.6 4.2 3.7 4.2 4.8 5.0 4.8 5.1 4.9 5.1 5.8
5.2 5.4 5.5 5.6 5.7 5.4 5.4 5.4 5.3 5.2 5.3 5.7 5.5 5.4 5.2 5.0 4.8 4.6 4.3 3.7 3.8 3.9 3.9 3.9 4.4 4.0 3.9 4.5 4.6 4.8 4.6 4.5 4.2 3.7 3.7 4.0 4.9 5.0 5.2 5.3 4.9 4.2 5.0
5.0 5.3 5.4 5.2 5.2 5.2 5.2 5.1 5.1 5.5 5.7 5.7 5.2 5.1 4.9 4.7 4.1 3.8 3.5 3.3 3.6 4.1 3.7 3.6 3.8 4.1 4.5 4.4 4.4 4.3 4.3 4.3 4.1 3.8 3.6 4.3 4.9 5.1 5.1 5.3 5.2 5.3 4.8
4.8 5.3 5.2 5.0 5.0 4.9 4.9 5.1 5.5 5.6 5.5 5.0 5.0 4.7 4.5 4.6 4.6 4.0 3.1 3.7 3.9 4.0 3.4 3.6 3.8 4.5 4.4 4.3 4.3 4.2 4.3 4.2 4.1 4.1 4.0 4.2 4.8 5.0 5.0 5.4 5.3 5.3 5.2
4.6 4.9 5.1 4.9 4.8 4.8 4.9 5.0 5.1 5.1 4.9 4.6 4.4 4.3 4.2 4.4 4.7 4.3 3.9 3.8 4.1 4.1 3.8 3.6 4.2 4.3 4.3 4.4 4.3 4.2 4.3 4.3 4.2 4.3 4.4 4.3 4.9 4.9 5.3 5.1 5.4 5.3 5.4
4.5 4.7 4.7 4.5 4.5 4.4 4.5 4.6 4.4 4.5 4.5 4.4 4.3 4.1 4.3 4.8 5.1 3.9 3.9 4.0 4.2 3.7 3.5 4.2 4.3 4.3 4.4 4.6 4.4 4.2 4.4 4.5 4.4 4.5 4.7 4.8 4.7 5.1 5.2 5.3 5.3 5.3 5.3
4.2 4.5 4.4 4.3 4.0 4.1 4.1 3.9 3.7 4.2 4.3 4.3 4.2 4.3 4.3 4.4 4.1 4.0 4.2 4.2 4.0 4.0 4.1 4.3 4.4 4.4 4.5 4.6 4.7 4.5 4.4 4.5 4.5 4.7 4.9 5.0 5.0 4.8 4.8 5.2 5.2 5.4 5.3
Wind_Speed
11 11 11 11 10 9 8 8 8 8 8 9 10 9 9 9 7 6 6 7 8 10 10 11 13 13 8 8 7 5 5 4 8 2 3 5 5 6 6 8 10 12 14
15 10 15 14 13 11 8 9 8 8 8 9 9 9 10 10 8 7 7 7 7 9 12 10 13 8 11 10 9 11 9 5 4 6 5 4 6 5 4 4 4 10 12
15 15 16 13 14 15 10 10 9 9 10 7 8 9 9 8 7 7 7 9 9 9 10 10 13 11 10 9 9 10 9 7 4 4 5 3 3 2 3 3 4 4 9
15 19 15 13 14 15 12 10 10 11 10 9 8 8 8 8 7 6 7 10 11 11 11 11 13 12 13 12 12 12 10 9 5 4 3 3 2 2 2 3 4 3 5
18 17 17 17 14 15 15 11 12 12 11 8 8 8 7 8 6 6 8 10 12 12 10 11 12 15 20 17 9 11 12 10 6 7 4 3 3 3 4 3 4 3 3
19 19 18 17 18 16 13 12 12 13 12 9 9 8 8 8 16 19 18 13 13 14 12 11 13 22 21 23 22 25 20 15 12 7 4 4 5 4 4 4 3 2 3
19 19 19 17 17 16 16 13 12 12 12 10 9 7 10 9 19 23 25 14 15 15 15 11 12 12 19 12 26 28 27 28 23 14 9 7 5 7 5 4 5 4 5
20 20 19 19 19 17 16 14 11 11 11 9 9 9 10 9 22 26 26 17 16 17 15 12 15 15 14 12 12 13 13 13 12 8 9 8 6 6 6 6 5 5 5
19 20 19 19 19 17 17 13 10 9 8 9 9 9 10 13 23 27 23 14 14 17 13 12 16 14 20 24 13 13 10 5 13 14 13 11 12 12 9 4 4 4 8
20 20 17 18 18 17 17 14 14 12 10 9 10 9 16 18 23 26 23 11 15 13 12 14 28 18 24 25 14 13 12 7 7 6 4 5 5 3 6 4 3 7 8
19 16 16 14 18 15 15 14 12 7 12 7 10 12 13 14 15 25 27 15 12 12 10 10 10 24 20 17 21 13 12 11 10 5 4 3 2 3 3 5 8 8 9
19 16 16 13 11 11 14 10 8 9 7 9 11 11 9 12 17 23 27 27 22 13 12 9 10 23 20 24 19 19 21 14 5 4 3 1 2 4 4 6 9 10 9
17 14 13 14 10 11 11 12 6 7 8 9 9 9 10 8 8 24 27 24 24 9 8 12 18 22 20 20 24 24 18 6 5 3 3 2 3 4 6 7 8 11 11
17 13 12 12 13 10 6 7 7 7 8 9 9 9 9 8 9 10 9 8 15 8 12 11 14 20 19 18 15 11 5 5 4 4 2 2 3 3 5 5 5 4 2
18 12 10 9 11 10 9 8 7 9 9 8 9 10 9 9 10 17 14 8 7 9 13 10 11 10 10 9 7 6 4 4 4 2 1 2 3 5 5 4 3 3 3
17 8 7 8 8 8 7 7 15 19 21 22 25 17 11 19 25 23 21 20 20 22 13 11 10 9 9 8 7 5 3 6 3 3 2 2 4 4 4 5 3 4 6
15 14 8 10 8 8 8 7 7 12 18 18 22 23 24 16 2 25 25 23 24 19 9 9 9 8 8 7 5 5 3 3 3 3 2 3 3 4 6 4 2 6 5
16 21 10 9 9 8 8 7 6 7 8 9 16 4 0 7 21 21 23 19 10 9 9 9 8 8 8 7 5 5 5 4 3 4 3 3 4 5 4 4 3 4 6
13 11 11 9 8 8 7 6 6 5 5 8 3 5 19 24 24 22 16 8 9 9 9 8 8 8 6 6 6 6 6 4 4 3 4 4 5 5 4 4 3 8 8
13 23 17 10 9 8 2 1 2 3 5 2 4 7 10 14 10 8 8 9 10 9 8 8 7 7 7 7 7 6 6 4 4 4 4 5 5 5 5 5 5 6 6
11 11 19 10 10 9 6 2 1 4 5 3 8 12 21 10 9 9 9 9 9 7 8 7 7 7 6 6 7 6 5 4 4 4 5 5 5 6 6 5 6 6 7
10 10 10 9 9 9 9 8 8 8 10 11 9 12 22 8 10 10 11 8 7 7 6 7 7 6 5 6 6 6 5 5 4 4 6 6 5 6 7 7 7 7 6
11 11 11 10 9 12 10 10 10 11 10 10 10 10 10 10 10 9 8 7 8 8 7 8 8 7 6 6 5 5 6 4 3 4 5 5 6 7 7 7 7 7 6
11 11 10 9 10 9 9 10 10 15 12 11 11 11 11 10 9 9 7 7 8 8 7 7 7 9 8 7 9 11 9 8 9 4 5 5 7 8 7 7 7 8 6
11 10 10 9 9 9 9 10 10 10 10 9 9 10 10 10 9 7 7 8 8 8 9 8 7 9 11 14 13 14 18 19 14 13 8 8 9 9 8 8 8 8 10
10 10 9 8 8 8 8 8 9 9 9 9 9 10 10 8 7 7 6 8 7 7 9 7 8 14 16 15 17 20 19 18 14 16 12 7 8 8 8 10 12 8 9
Wind_Direction
275 272 273 274 265 261 253 258 245 250 242 245 254 258 248 247 250 249 262 273 271 260 243 232 231 221 214 206 201 197 179 154 204 228 198 195 181 188 204 212 223 234 242
284 282 288 286 283 262 253 254 242 241 240 242 244 246 247 243 241 246 255 267 269 277 255 229 231 221 222 207 200 201 201 193 148 179 186 201 201 200 202 222 223 228 234
281 294 282 282 282 272 261 267 263 260 271 245 234 243 246 240 235 241 256 270 267 262 266 241 231 211 209 216 202 199 204 194 159 140 185 181 192 157 208 242 234 236 245
289 293 279 283 279 274 265 263 267 265 264 266 268 264 261 247 240 235 246 266 270 264 261 253 235 215 207 207 210 204 196 189 173 143 150 163 170 184 151 197 250 218 252
297 291 291 290 278 274 267 262 266 263 258 250 260 257 248 251 250 251 251 257 259 258 256 259 242 221 212 216 214 214 189 190 182 181 147 148 172 172 187 182 221 224 260
298 293 292 289 287 276 260 260 263 264 260 252 246 247 264 255 263 278 286 275 266 257 257 262 255 241 237 229 234 228 204 183 188 177 165 178 190 187 167 186 195 177 275
301 297 293 290 284 277 275 273 261 263 259 251 248 249 262 251 264 278 284 272 269 264 257 254 265 237 222 218 232 224 219 206 187 179 177 186 169 183 169 185 198 197 231
299 296 294 292 286 283 281 274 262 260 252 252 250 247 255 251 270 281 280 271 270 267 252 251 261 225 218 200 227 212 197 203 190 177 182 172 181 176 180 181 191 218 254
294 293 292 292 289 288 280 274 265 259 254 254 254 254 251 261 272 278 277 270 267 260 246 253 255 210 203 202 211 190 173 171 187 177 178 181 192 201 197 162 214 212 269
293 291 294 288 285 284 287 281 287 267 253 254 255 247 259 275 276 273 276 271 267 256 247 262 255 199 192 196 203 180 164 166 141 120 123 165 223 261 264 246 214 249 256
294 290 304 280 283 276 277 276 275 264 266 245 261 273 270 265 267 274 278 268 256 249 255 235 201 185 192 207 199 180 170 143 157 146 145 149 242 261 248 229 227 232 248
295 291 297 288 275 284 281 270 269 263 252 266 276 277 267 269 274 283 281 269 254 247 241 187 178 180 181 213 171 154 140 133 130 139 127 174 252 267 259 255 251 244 240
301 293 300 297 284 281 280 276 259 260 260 270 271 276 282 275 281 290 287 282 262 221 154 163 165 174 183 155 150 134 126 128 130 125 133 218 230 251 280 281 276 259 249
303 291 298 299 290 280 259 258 254 255 263 268 272 278 278 281 282 290 287 286 130 130 156 166 156 125 130 130 115 107 111 122 133 127 153 245 277 291 287 272 268 307 258
316 289 289 293 282 279 275 265 261 262 257 269 271 274 273 287 285 289 290 123 131 159 168 122 109 104 105 98 90 95 97 96 98 109 93 321 301 293 273 296 299 285 123
325 300 283 286 285 282 277 281 278 282 285 285 283 286 286 279 284 278 135 134 141 123 108 108 105 112 110 112 113 106 93 107 94 91 26 318 299 295 338 331 289 145 101
322 321 294 286 280 277 274 270 283 297 298 294 295 292 279 275 314 110 124 121 114 108 105 111 111 111 114 115 105 107 115 90 92 61 19 324 308 357 354 335 350 119 114
324 318 311 295 284 279 273 272 271 285 307 313 311 27 222 160 114 114 112 103 105 97 105 104 105 115 106 103 118 111 90 85 66 39 357 346 2 359 354 350 26 115 126
330 324 324 326 308 281 256 254 266 276 307 302 328 66 95 106 106 99 99 99 103 96 94 92 98 97 108 112 98 91 91 83 62 26 13 13 6 359 357 11 22 118 116
333 332 348 341 334 329 293 304 317 299 288 344 44 81 83 82 80 79 84 88 87 85 91 99 97 105 102 97 93 90 81 66 41 29 20 21 8 3 12 19 45 101 101
337 337 349 348 351 1 34 358 336 77 84 81 81 85 90 85 85 83 84 78 83 94 98 102 106 97 91 90 92 87 82 69 42 26 28 19 14 14 12 27 52 72 104
344 342 349 360 5 20 36 41 54 62 75 77 74 78 81 77 79 77 76 81 87 87 95 99 91 93 94 98 95 89 80 71 46 29 29 19 20 21 20 34 49 57 65
350 352 356 6 13 24 38 40 49 54 60 69 75 76 73 73 71 71 76 81 86 83 81 85 89 86 82 82 77 84 82 66 55 42 30 22 26 28 26 35 39 49 49
355 360 4 11 16 26 39 46 57 59 65 66 71 80 85 84 76 70 75 80 82 80 80 84 89 97 91 82 75 73 76 64 53 37 28 33 35 28 31 35 38 41 46
0 2 8 15 18 21 32 39 49 58 64 62 70 77 80 77 73 70 79 84 87 85 82 85 84 82 82 86 83 78 74 68 60 51 39 42 41 30 37 40 33 41 46
7 8 10 13 21 24 29 37 46 47 57 65 73 81 85 83 72 66 79 87 88 83 85 85 84 86 87 89 91 84 76 69 59 58 53 48 42 40 37 38 36 42 44